Location: Amherst
(42.5000°N, 72.5000°W)
Time: 11:24:52
(UTC-04:00)

ISS - Pass Details

Date: 20 May 2018
Orbit: 402 x 407 km, 51.6° (Epoch: 27 May)

Event Time Altitude Azimuth Distance (km) Brightness Sun altitude
Rises 23:18:15 0° 264° (W) 2,313 0.2 -24.1°
Reaches altitude 10° 23:20:30 10° 276° (W) 1,455 -0.7 -24.3°
Maximum altitude 23:23:23 29° 338° (NNW) 778 -1.8 -24.5°
Drops below altitude 10° 23:26:18 10° 41° (NE) 1,458 -0.7 -24.7°
Sets 23:28:33 0° 53° (NE) 2,319 0.2 -24.8°
